Rechercher aéroport 
image banner adimage banner adimage banner ad
image banner ad

PS41 - Upmc-Horizon Hospital/Shenango Campus

Situé à Farrell, United States

ICAO - PS41, IATA -

Données fournies par Airmate  

Information générale

Coordonnées: N41°12'35" W80°28'8"
Élévation : 1121 feet MSL.
Variation magnétique : -09° East
Voir autres Aéroports à Pennsylvania

Données opérationnelles

Special qualification required
Heure actuelle UTC:
Heure actuelle locale:
Météo à : KYNG - Youngstown-Warren Rgnl ( 19 km )
METAR: KYNG 260851Z 22006KT 10SM FEW250 09/06 A3001 RMK AO2 SLP162 T00890061 55002
TAF: KYNG 260535Z 2606/2706 VRB03KT P6SM FEW070 FM261500 25010G18KT P6SM SCT120 FM262300 22008KT P6SM SCT120
Voir NOTAMs / SUP AIP / TFR affectant cet aéroport [VIEW]
Fréquences de communication: [VIEW]

Pistes:

Coordonnées de l'aéroport

Adresse: Farrell United States

Vue satellite de PS41